Flight Track Log - Related Links

Times and Time Zones

All times are in EDT time to prevent confusion due to time zone crossing. See the SWA561 flight status page for this flight to view local times or setup timezone preferences in your user account.

Time Position Orientation Groundspeed Altitude Reporting Facility
EDT Latitude Longitude Course Direction KTS MPH feet Rate Location/Type
09:48PM 33.9500 -118.4500 211° Southwest 154 177 1,400  Level Southern California TRACON
09:49PM 33.9164 -118.4742 211° Southwest 189 217 2,400 1,811 Climbing Los Angeles Center
09:50PM 33.8636 -118.5333 223° Southwest 259 298 4,600 2,419 Climbing Los Angeles Center
09:51PM 33.7933 -118.5342 181° South 278 320 7,400 3,145 Climbing Los Angeles Center
09:52PM 33.6992 -118.5061 166° South 314 361 11,100 3,242 Climbing Los Angeles Center
09:53PM 33.6608 -118.4033 114° Southeast 349 402 14,100 2,976 Climbing Los Angeles Center
09:54PM 33.6436 -118.2864 100° East 366 421 17,200 3,268 Climbing Los Angeles Center
09:55PM 33.6444 -118.1353 90° East 383 441 20,800 2,952 Climbing Los Angeles Center
09:56PM 33.6442 -118.0014 90° East 399 459 23,300 2,323 Climbing Los Angeles Center
09:57PM 33.6442 -117.8622 90° East 413 475 25,600 1,951 Climbing Los Angeles Center
09:58PM 33.6431 -117.7442 91° East 429 494 27,300 1,935 Climbing Los Angeles Center
09:59PM 33.6417 -117.5636 90° East 448 516 29,600 1,935 Climbing Los Angeles Center
10:00PM 33.6414 -117.4083 90° East 462 532 31,300 1,854 Climbing Los Angeles Center
10:01PM 33.6419 -117.2503 90° East 474 545 33,400 1,887 Climbing Los Angeles Center
10:02PM 33.6244 -117.0628 96° East 474 545 35,200 1,500 Climbing Los Angeles Center
10:03PM 33.6025 -116.9053 99° East 478 550 36,500 1,171 Climbing Los Angeles Center
10:04PM 33.5808 -116.7419 99° East 485 558 37,600 1,024 Climbing Los Angeles Center
10:05PM 33.5569 -116.5803 100° East 490 564 38,600 677 Climbing Los Angeles Center
10:06PM 33.5336 -116.4142 100° East 501 577 39,000 194 Climbing Los Angeles Center
10:07PM 33.5117 -116.2506 99° East 497 572 39,000  Level Los Angeles Center
10:08PM 33.4878 -116.0853 100° East 500 575 39,000  Level Los Angeles Center
10:09PM 33.4639 -115.9214 100° East 497 572 39,000 -48 Level Los Angeles Center
10:10PM 33.4356 -115.7253 100° East 498 573 38,900  Descending Los Angeles Center
10:11PM 33.4114 -115.5633 100° East 494 568 39,000 49 Climbing Los Angeles Center
10:12PM 33.3883 -115.3986 99° East 498 573 39,000  Level Los Angeles Center
10:13PM 33.3639 -115.2364 100° East 496 571 39,000  Level Los Angeles Center
10:14PM 33.3400 -115.0728 100° East 498 573 39,000  Level Los Angeles Center
10:15PM 33.3139 -114.9100 101° East 499 574 39,000  Level Los Angeles Center
10:16PM 33.2881 -114.7472 101° East 498 573 39,000  Level Los Angeles Center
10:18PM 33.2622 -114.5844 101° East 498 573 39,000 -67 Level Los Angeles Center
10:18PM 33.2544 -114.5017 96° East 499 574 38,900  Descending Albuquerque Center
10:19PM 33.2297 -114.3400 100° East 497 572 39,000  Climbing Albuquerque Center
10:20PM 33.2047 -114.1783 100° East 496 571 38,900  Descending Albuquerque Center
10:21PM 33.1789 -114.0158 101° East 497 572 39,000 49 Climbing Albuquerque Center
10:22PM 33.1467 -113.8211 101° East 499 574 39,000  Level Albuquerque Center
10:23PM 33.1211 -113.6575 101° East 501 577 39,000  Level Albuquerque Center
10:24PM 33.0944 -113.4942 101° East 500 575 39,000  Level Albuquerque Center
10:25PM 33.0672 -113.3289 101° East 505 581 39,000 -49 Level Albuquerque Center
10:26PM 33.0403 -113.1658 101° East 501 577 38,900 -537 Descending Albuquerque Center
10:27PM 33.0133 -113.0025 101° East 501 577 37,900 -976 Descending Albuquerque Center
10:28PM 32.9861 -112.8406 101° East 498 573 36,900 -1,623 Descending Albuquerque Center
10:29PM 32.9561 -112.6811 103° East 492 566 34,600 -2,164 Descending Albuquerque Center
10:30PM 32.9022 -112.5347 114° Southeast 482 555 32,500 -2,488 Descending Albuquerque Center
10:31PM 32.8469 -112.3892 114° Southeast 480 552 29,500 -2,683 Descending Albuquerque Center
10:32PM 32.7917 -112.2464 115° Southeast 475 547 27,000 -2,410 Descending Albuquerque Center
10:33PM 32.7389 -112.1056 114° Southeast 472 543 24,600 -2,557 Descending Albuquerque Center
10:34PM 32.6769 -111.9469 115° Southeast 462 532 21,800 -2,488 Descending Albuquerque Center
10:35PM 32.6289 -111.8250 115° Southeast 432 497 19,500 -2,243 Descending Albuquerque Center
10:36PM 32.5881 -111.7308 117° Southeast 417 480 17,800 -2,164 Descending Albuquerque Center
10:36PM 32.5817 -111.7064 107° East 412 474 17,300 -2,182 Descending Albuquerque Center
10:37PM 32.5272 -111.5944 120° Southeast 405 466 15,000 -2,016 Descending Albuquerque Center
10:38PM 32.4525 -111.5078 136° Southeast 384 442 13,200 -1,918 Descending Albuquerque Center
10:39PM 32.3792 -111.4228 136° Southeast 373 429 11,100 -1,659 Descending Albuquerque Center
10:40PM 32.3344 -111.3228 118° Southeast 347 399 9,800 -1,512 Descending Albuquerque Center
10:41PM 32.3008 -111.2308 113° Southeast 318 366 8,000 -1,900 Descending Albuquerque Center
10:42PM 32.2619 -111.1339 115° Southeast 299 344 6,000 -1,500 Descending Albuquerque Center
10:43PM 32.2172 -111.0578 125° Southeast 258 297 5,000 -1,033 Descending Albuquerque Center
10:44PM 32.1756 -111.0083 135° Southeast 208 239 3,900 -942 Descending Albuquerque Center
10:45PM 32.1428 -110.9719 137° Southeast 169 194 3,100 -800 Descending Albuquerque Center
10:47PM 32.1161 -110.9410 128° Southeast  Level Estimated
10:54PM 32.1161 -110.9410 128° Southeast  Level Estimated
10:55PM 32.1161 -110.9410 128° Southeast  Level Estimated

Login

Don't have an account? Register now (free) for customized features, flight alerts, and more!